TimePST,TemperatureF,Dew PointF,Humidity,Sea Level PressureIn,VisibilityMPH,Wind Direction,Wind SpeedMPH,Gust SpeedMPH,PrecipitationIn,Events,Conditions,WindDirDegrees,DateUTC
12:53 AM,60.1,59.0,96,30.10,7.0,West,3.5,-,N/A,,Overcast,260,2012-11-18 08:53:00
1:53 AM,60.3,59.0,96,30.09,8.0,SW,3.5,-,N/A,,Overcast,230,2012-11-18 09:53:00
2:53 AM,59.7,59.0,97,30.09,9.0,West,5.8,-,N/A,,Overcast,270,2012-11-18 10:53:00
3:08 AM,59.0,59.0,100,30.09,1.0,West,6.9,-,N/A,,Overcast,270,2012-11-18 11:08:00
3:21 AM,59.0,57.2,94,30.08,0.5,West,4.6,-,N/A,Fog,Fog,270,2012-11-18 11:21:00
3:53 AM,60.1,57.7,92,30.08,1.0,West,4.6,-,N/A,,Overcast,280,2012-11-18 11:53:00
3:59 AM,60.8,59.0,94,30.08,3.0,West,3.5,-,N/A,,Overcast,280,2012-11-18 11:59:00
4:06 AM,60.8,59.0,94,30.08,6.0,West,3.5,-,N/A,,Overcast,280,2012-11-18 12:06:00
4:12 AM,60.8,59.0,94,30.08,8.0,NW,4.6,-,N/A,,Overcast,320,2012-11-18 12:12:00
4:28 AM,60.8,59.0,94,30.08,10.0,NNW,3.5,-,N/A,,Overcast,330,2012-11-18 12:28:00
4:45 AM,60.8,59.0,94,30.08,10.0,Calm,Calm,-,N/A,,Overcast,0,2012-11-18 12:45:00
4:53 AM,60.3,58.6,94,30.08,9.0,WNW,3.5,-,N/A,,Overcast,300,2012-11-18 12:53:00
5:07 AM,60.8,59.0,94,30.09,10.0,Calm,Calm,-,N/A,,Overcast,0,2012-11-18 13:07:00
5:37 AM,60.8,59.0,94,30.10,1.0,West,4.6,-,N/A,,Overcast,270,2012-11-18 13:37:00
5:53 AM,61.5,57.9,88,30.10,1.0,West,5.8,-,N/A,,Overcast,280,2012-11-18 13:53:00
6:12 AM,60.8,57.2,88,30.10,4.0,WNW,8.1,-,N/A,,Overcast,290,2012-11-18 14:12:00
6:36 AM,60.8,57.2,88,30.10,7.0,West,3.5,-,N/A,,Overcast,280,2012-11-18 14:36:00
6:53 AM,61.0,57.9,90,30.11,10.0,SSW,4.6,-,N/A,,Overcast,210,2012-11-18 14:53:00
7:53 AM,63.0,58.3,85,30.14,10.0,WSW,6.9,-,N/A,,Mostly Cloudy,250,2012-11-18 15:53:00
8:09 AM,62.6,59.0,88,30.14,10.0,WSW,4.6,-,N/A,,Mostly Cloudy,250,2012-11-18 16:09:00
8:53 AM,64.0,59.0,84,30.16,10.0,West,8.1,-,N/A,,Mostly Cloudy,260,2012-11-18 16:53:00
9:53 AM,64.9,57.9,78,30.16,10.0,WSW,5.8,-,N/A,,Scattered Clouds,250,2012-11-18 17:53:00
10:53 AM,64.9,52.0,63,30.16,10.0,West,13.8,-,N/A,,Scattered Clouds,270,2012-11-18 18:53:00
11:53 AM,64.9,54.0,68,30.14,10.0,West,15.0,-,N/A,,Scattered Clouds,260,2012-11-18 19:53:00
12:53 PM,64.9,55.0,70,30.13,10.0,West,15.0,-,N/A,,Partly Cloudy,270,2012-11-18 20:53:00
1:53 PM,64.9,53.1,65,30.12,10.0,West,15.0,-,N/A,,Scattered Clouds,270,2012-11-18 21:53:00
2:53 PM,64.0,54.0,70,30.13,10.0,West,17.3,-,N/A,,Scattered Clouds,260,2012-11-18 22:53:00
3:53 PM,63.0,55.0,75,30.13,10.0,WSW,11.5,-,N/A,,Scattered Clouds,250,2012-11-18 23:53:00
4:53 PM,62.1,55.9,80,30.13,10.0,WSW,12.7,-,N/A,,Scattered Clouds,250,2012-11-19 00:53:00
5:53 PM,61.0,55.9,83,30.14,10.0,WSW,8.1,-,N/A,,Partly Cloudy,240,2012-11-19 01:53:00
6:53 PM,62.1,55.9,80,30.15,10.0,WNW,10.4,-,N/A,,Partly Cloudy,290,2012-11-19 02:53:00
7:53 PM,61.0,55.0,81,30.15,10.0,West,10.4,-,N/A,,Clear,270,2012-11-19 03:53:00
8:53 PM,61.0,55.0,81,30.16,10.0,WSW,6.9,-,N/A,,Clear,250,2012-11-19 04:53:00
9:53 PM,61.0,55.9,83,30.18,10.0,West,9.2,-,N/A,,Clear,270,2012-11-19 05:53:00
10:53 PM,60.6,55.9,85,30.18,10.0,WNW,5.8,-,N/A,,Clear,290,2012-11-19 06:53:00
11:51 PM,60.8,55.4,82,30.19,10.0,WNW,5.8,-,N/A,,Partly Cloudy,290,2012-11-19 07:51:00
11:53 PM,60.6,55.9,85,30.19,10.0,West,9.2,-,N/A,,Partly Cloudy,280,2012-11-19 07:53:00